Year,Month,Day,Hour,Minute,Value (Times are PST for temperature in C)
2007,08,11,00,00,12.60
2007,08,11,00,01,12.60
2007,08,11,00,02,12.60
2007,08,11,00,03,12.50
2007,08,11,00,04,12.40
2007,08,11,00,05,12.40
2007,08,11,00,06,12.40
2007,08,11,00,07,12.30
2007,08,11,00,08,12.30
2007,08,11,00,09,12.30
2007,08,11,00,10,12.20
2007,08,11,00,11,12.20
2007,08,11,00,12,12.20
2007,08,11,00,13,12.10
2007,08,11,00,14,12.10
2007,08,11,00,15,12.10
2007,08,11,00,16,12.10
2007,08,11,00,17,12.00
2007,08,11,00,18,12.00
2007,08,11,00,19,11.90
2007,08,11,00,20,11.90
2007,08,11,00,21,11.90
2007,08,11,00,22,11.90
2007,08,11,00,23,11.80
2007,08,11,00,24,11.80
2007,08,11,00,25,11.80
2007,08,11,00,26,11.80
2007,08,11,00,27,11.80
2007,08,11,00,28,11.80
2007,08,11,00,29,11.80
2007,08,11,00,30,11.80
2007,08,11,00,31,11.80
2007,08,11,00,32,11.70
2007,08,11,00,33,11.70
2007,08,11,00,34,11.70
2007,08,11,00,35,11.70
2007,08,11,00,36,11.70
2007,08,11,00,37,11.70
2007,08,11,00,38,11.70
2007,08,11,00,39,11.70
2007,08,11,00,40,11.70
2007,08,11,00,41,11.70
2007,08,11,00,42,11.60
2007,08,11,00,43,11.60
2007,08,11,00,44,11.60
2007,08,11,00,45,11.60
2007,08,11,00,46,11.60
2007,08,11,00,47,11.60
2007,08,11,00,48,11.60
2007,08,11,00,49,11.60
2007,08,11,00,50,11.60
2007,08,11,00,51,11.60
2007,08,11,00,52,11.60
2007,08,11,00,53,11.60
2007,08,11,00,54,11.50
2007,08,11,00,55,11.50
2007,08,11,00,56,11.50
2007,08,11,00,57,11.50
2007,08,11,00,58,11.50
2007,08,11,00,59,11.50
2007,08,11,01,00,11.50
2007,08,11,01,01,11.50
2007,08,11,01,02,11.50
2007,08,11,01,03,11.50
2007,08,11,01,04,11.50
2007,08,11,01,05,11.50
2007,08,11,01,06,11.50
2007,08,11,01,07,11.50
2007,08,11,01,08,11.50
2007,08,11,01,09,11.50
2007,08,11,01,10,11.50
2007,08,11,01,11,11.50
2007,08,11,01,12,11.50
2007,08,11,01,13,11.50
2007,08,11,01,14,11.50
2007,08,11,01,15,11.60
2007,08,11,01,16,11.60
2007,08,11,01,17,11.60
2007,08,11,01,18,11.60
2007,08,11,01,19,11.50
2007,08,11,01,20,11.50
2007,08,11,01,21,11.50
2007,08,11,01,22,11.60
2007,08,11,01,23,11.60
2007,08,11,01,24,11.60
2007,08,11,01,25,11.60
2007,08,11,01,26,11.60
2007,08,11,01,27,11.60
2007,08,11,01,28,11.60
2007,08,11,01,29,11.60
2007,08,11,01,30,11.60
2007,08,11,01,31,11.60
2007,08,11,01,32,11.60
2007,08,11,01,33,11.60
2007,08,11,01,34,11.60
2007,08,11,01,35,11.60
2007,08,11,01,36,11.60
2007,08,11,01,37,11.60
2007,08,11,01,38,11.60
2007,08,11,01,39,11.60
2007,08,11,01,40,11.60
2007,08,11,01,41,11.60
2007,08,11,01,42,11.60
2007,08,11,01,43,11.60
2007,08,11,01,44,11.60
2007,08,11,01,45,11.60
2007,08,11,01,46,11.60
2007,08,11,01,47,11.60
2007,08,11,01,48,11.60
2007,08,11,01,49,11.60
2007,08,11,01,50,11.60
2007,08,11,01,51,11.60
2007,08,11,01,52,11.60
2007,08,11,01,53,11.50
2007,08,11,01,54,11.50
2007,08,11,01,55,11.50
2007,08,11,01,56,11.50
2007,08,11,01,57,11.50
2007,08,11,01,58,11.50
2007,08,11,01,59,11.50
2007,08,11,02,00,11.50
2007,08,11,02,01,11.40
2007,08,11,02,02,11.40
2007,08,11,02,03,11.40
2007,08,11,02,04,11.40
2007,08,11,02,05,11.40
2007,08,11,02,06,11.40
2007,08,11,02,07,11.40
2007,08,11,02,08,11.40
2007,08,11,02,09,11.40
2007,08,11,02,10,11.40
2007,08,11,02,11,11.40
2007,08,11,02,12,11.40
2007,08,11,02,13,11.30
2007,08,11,02,14,11.30
2007,08,11,02,15,11.30
2007,08,11,02,16,11.30
2007,08,11,02,17,11.30
2007,08,11,02,18,11.30
2007,08,11,02,19,11.30
2007,08,11,02,20,11.30
2007,08,11,02,21,11.30
2007,08,11,02,22,11.30
2007,08,11,02,23,11.30
2007,08,11,02,24,11.30
2007,08,11,02,25,11.30
2007,08,11,02,26,11.30
2007,08,11,02,27,11.30
2007,08,11,02,28,11.30
2007,08,11,02,29,11.30
2007,08,11,02,30,11.20
2007,08,11,02,31,11.20
2007,08,11,02,32,11.20
2007,08,11,02,33,11.20
2007,08,11,02,34,11.20
2007,08,11,02,35,11.20
2007,08,11,02,36,11.20
2007,08,11,02,37,11.10
2007,08,11,02,38,11.10
2007,08,11,02,39,11.10
2007,08,11,02,40,11.10
2007,08,11,02,41,11.10
2007,08,11,02,42,11.00
2007,08,11,02,43,11.00
2007,08,11,02,44,11.00
2007,08,11,02,45,10.90
2007,08,11,02,46,10.90
2007,08,11,02,47,10.90
2007,08,11,02,48,10.90
2007,08,11,02,49,10.90
2007,08,11,02,50,10.90
2007,08,11,02,51,10.90
2007,08,11,02,52,10.90
2007,08,11,02,53,10.90
2007,08,11,02,54,10.90
2007,08,11,02,55,10.90
2007,08,11,02,56,10.90
2007,08,11,02,57,10.80
2007,08,11,02,58,10.80
2007,08,11,02,59,10.80
2007,08,11,03,00,10.80
2007,08,11,03,01,10.80
2007,08,11,03,02,10.80
2007,08,11,03,03,10.80
2007,08,11,03,04,10.80
2007,08,11,03,05,10.80
2007,08,11,03,06,10.80
2007,08,11,03,07,10.80
2007,08,11,03,08,10.70
2007,08,11,03,09,10.70
2007,08,11,03,10,10.70
2007,08,11,03,11,10.70
2007,08,11,03,12,10.70
2007,08,11,03,13,10.70
2007,08,11,03,14,10.70
2007,08,11,03,15,10.70
2007,08,11,03,16,10.70
2007,08,11,03,17,10.70
2007,08,11,03,18,10.60
2007,08,11,03,19,10.60
2007,08,11,03,20,10.60
2007,08,11,03,21,10.60
2007,08,11,03,22,10.60
2007,08,11,03,23,10.60
2007,08,11,03,24,10.50
2007,08,11,03,25,10.50
2007,08,11,03,26,10.50
2007,08,11,03,27,10.40
2007,08,11,03,28,10.40
2007,08,11,03,29,10.40
2007,08,11,03,30,10.40
2007,08,11,03,31,10.40
2007,08,11,03,32,10.40
2007,08,11,03,33,10.40
2007,08,11,03,34,10.40
2007,08,11,03,35,10.40
2007,08,11,03,36,10.40
2007,08,11,03,37,10.40
2007,08,11,03,38,10.40
2007,08,11,03,39,10.50
2007,08,11,03,40,10.50
2007,08,11,03,41,10.50
2007,08,11,03,42,10.50
2007,08,11,03,43,10.50
2007,08,11,03,44,10.50
2007,08,11,03,45,10.60
2007,08,11,03,46,10.60
2007,08,11,03,47,10.60
2007,08,11,03,48,10.60
2007,08,11,03,49,10.60
2007,08,11,03,50,10.60
2007,08,11,03,51,10.60
2007,08,11,03,52,10.60
2007,08,11,03,53,10.70
2007,08,11,03,54,10.70
2007,08,11,03,55,10.70
2007,08,11,03,56,10.70
2007,08,11,03,57,10.70
2007,08,11,03,58,10.80
2007,08,11,03,59,10.80
2007,08,11,04,00,10.80
2007,08,11,04,01,10.80
2007,08,11,04,02,10.80
2007,08,11,04,03,10.80
2007,08,11,04,04,10.80
2007,08,11,04,05,10.80
2007,08,11,04,06,10.80
2007,08,11,04,07,10.90
2007,08,11,04,08,10.90
2007,08,11,04,09,10.90
2007,08,11,04,10,10.90
2007,08,11,04,11,10.90
2007,08,11,04,12,10.90
2007,08,11,04,13,10.90
2007,08,11,04,14,10.90
2007,08,11,04,15,10.90
2007,08,11,04,16,10.90
2007,08,11,04,17,10.90
2007,08,11,04,18,10.90
2007,08,11,04,19,10.90
2007,08,11,04,20,10.90
2007,08,11,04,21,10.90
2007,08,11,04,22,10.90
2007,08,11,04,23,10.90
2007,08,11,04,24,11.00
2007,08,11,04,25,11.00
2007,08,11,04,26,11.00
2007,08,11,04,27,11.00
2007,08,11,04,28,10.90
2007,08,11,04,29,10.90
2007,08,11,04,30,10.90
2007,08,11,04,31,10.90
2007,08,11,04,32,10.90
2007,08,11,04,33,10.90
2007,08,11,04,34,10.90
2007,08,11,04,35,10.90
2007,08,11,04,36,10.80
2007,08,11,04,37,10.80
2007,08,11,04,38,10.80
2007,08,11,04,39,10.80
2007,08,11,04,40,10.80
2007,08,11,04,41,10.80
2007,08,11,04,42,10.80
2007,08,11,04,43,10.80
2007,08,11,04,44,10.80
2007,08,11,04,45,10.80
2007,08,11,04,46,10.80
2007,08,11,04,47,10.80
2007,08,11,04,48,10.80
2007,08,11,04,49,10.80
2007,08,11,04,50,10.80
2007,08,11,04,51,10.80
2007,08,11,04,52,10.80
2007,08,11,04,53,10.80
2007,08,11,04,54,10.80
2007,08,11,04,55,10.80
2007,08,11,04,56,10.70
2007,08,11,04,57,10.70
2007,08,11,04,58,10.70
2007,08,11,04,59,10.70
2007,08,11,05,00,10.70
2007,08,11,05,01,10.70
2007,08,11,05,02,10.70
2007,08,11,05,03,10.70
2007,08,11,05,04,10.70
2007,08,11,05,05,10.70
2007,08,11,05,06,10.70
2007,08,11,05,07,10.70
2007,08,11,05,08,10.70
2007,08,11,05,09,10.70
2007,08,11,05,10,10.70
2007,08,11,05,11,10.70
2007,08,11,05,12,10.70
2007,08,11,05,13,10.70
2007,08,11,05,14,10.70
2007,08,11,05,15,10.60
2007,08,11,05,16,10.60
2007,08,11,05,17,10.60
2007,08,11,05,18,10.60
2007,08,11,05,19,10.50
2007,08,11,05,20,10.50
2007,08,11,05,21,10.50
2007,08,11,05,22,10.50
2007,08,11,05,23,10.40
2007,08,11,05,24,10.40
2007,08,11,05,25,10.40
2007,08,11,05,26,10.40
2007,08,11,05,27,10.40
2007,08,11,05,28,10.40
2007,08,11,05,29,10.40
2007,08,11,05,30,10.40
2007,08,11,05,31,10.40
2007,08,11,05,32,10.40
2007,08,11,05,33,10.40
2007,08,11,05,34,10.40
2007,08,11,05,35,10.40
2007,08,11,05,36,10.40
2007,08,11,05,37,10.30
2007,08,11,05,38,10.30
2007,08,11,05,39,10.30
2007,08,11,05,40,10.30
2007,08,11,05,41,10.30
2007,08,11,05,42,10.30
2007,08,11,05,43,10.30
2007,08,11,05,44,10.20
2007,08,11,05,45,10.20
2007,08,11,05,46,10.20
2007,08,11,05,47,10.20
2007,08,11,05,48,10.10
2007,08,11,05,49,10.10
2007,08,11,05,50,10.00
2007,08,11,05,51,10.00
2007,08,11,05,52,9.90
2007,08,11,05,53,9.90
2007,08,11,05,54,9.80
2007,08,11,05,55,9.80
2007,08,11,05,56,9.80
2007,08,11,05,57,9.70
2007,08,11,05,58,9.70
2007,08,11,05,59,9.70
2007,08,11,06,00,9.70
2007,08,11,06,01,9.60
2007,08,11,06,02,9.60
2007,08,11,06,03,9.60
2007,08,11,06,04,9.60
2007,08,11,06,05,9.60
2007,08,11,06,06,9.50
2007,08,11,06,07,9.50
2007,08,11,06,08,9.50
2007,08,11,06,09,9.50
2007,08,11,06,10,9.50
2007,08,11,06,11,9.40
2007,08,11,06,12,9.40
2007,08,11,06,13,9.40
2007,08,11,06,14,9.40
2007,08,11,06,15,9.40
2007,08,11,06,16,9.40
2007,08,11,06,17,9.30
2007,08,11,06,18,9.30
2007,08,11,06,19,9.30
2007,08,11,06,20,9.30
2007,08,11,06,21,9.30
2007,08,11,06,22,9.30
2007,08,11,06,23,9.30
2007,08,11,06,24,9.40
2007,08,11,06,25,9.40
2007,08,11,06,26,9.40
2007,08,11,06,27,9.40
2007,08,11,06,28,9.50
2007,08,11,06,29,9.50
2007,08,11,06,30,9.50
2007,08,11,06,31,9.50
2007,08,11,06,32,9.50
2007,08,11,06,33,9.50
2007,08,11,06,34,9.50
2007,08,11,06,35,9.50
2007,08,11,06,36,9.50
2007,08,11,06,37,9.50
2007,08,11,06,38,9.40
2007,08,11,06,39,9.40
2007,08,11,06,40,9.50
2007,08,11,06,41,9.40
2007,08,11,06,42,9.40
2007,08,11,06,43,9.40
2007,08,11,06,44,9.50
2007,08,11,06,45,9.50
2007,08,11,06,46,9.50
2007,08,11,06,47,9.50
2007,08,11,06,48,9.50
2007,08,11,06,49,9.50
2007,08,11,06,50,9.50
2007,08,11,06,51,9.60
2007,08,11,06,52,9.60
2007,08,11,06,53,9.60
2007,08,11,06,54,9.70
2007,08,11,06,55,9.70
2007,08,11,06,56,9.70
2007,08,11,06,57,9.80
2007,08,11,06,58,9.80
2007,08,11,06,59,9.80
2007,08,11,07,00,9.90
2007,08,11,07,01,9.90
2007,08,11,07,02,10.00
2007,08,11,07,03,10.10
2007,08,11,07,04,10.10
2007,08,11,07,05,10.20
2007,08,11,07,06,10.20
2007,08,11,07,07,10.20
2007,08,11,07,08,10.30
2007,08,11,07,09,10.30
2007,08,11,07,10,10.30
2007,08,11,07,11,10.30
2007,08,11,07,12,10.40
2007,08,11,07,13,10.40
2007,08,11,07,14,10.40
2007,08,11,07,15,10.50
2007,08,11,07,16,10.60
2007,08,11,07,17,10.60
2007,08,11,07,18,10.60
2007,08,11,07,19,10.60
2007,08,11,07,20,10.70
2007,08,11,07,21,10.70
2007,08,11,07,22,10.70
2007,08,11,07,23,10.80
2007,08,11,07,24,10.80
2007,08,11,07,25,10.90
2007,08,11,07,26,10.90
2007,08,11,07,27,11.00
2007,08,11,07,28,11.10
2007,08,11,07,29,11.10
2007,08,11,07,30,11.20
2007,08,11,07,31,11.20
2007,08,11,07,32,11.20
2007,08,11,07,33,11.30
2007,08,11,07,34,11.30
2007,08,11,07,35,11.30
2007,08,11,07,36,11.30
2007,08,11,07,37,11.30
2007,08,11,07,38,11.40
2007,08,11,07,39,11.40
2007,08,11,07,40,11.40
2007,08,11,07,41,11.50
2007,08,11,07,42,11.60
2007,08,11,07,43,11.60
2007,08,11,07,44,11.70
2007,08,11,07,45,11.80
2007,08,11,07,46,11.90
2007,08,11,07,47,12.00
2007,08,11,07,48,12.10
2007,08,11,07,49,12.10
2007,08,11,07,50,12.20
2007,08,11,07,51,12.30
2007,08,11,07,52,12.40
2007,08,11,07,53,12.50
2007,08,11,07,54,12.50
2007,08,11,07,55,12.60
2007,08,11,07,56,12.70
2007,08,11,07,57,12.70
2007,08,11,07,58,12.80
2007,08,11,07,59,12.90
2007,08,11,08,00,12.90
2007,08,11,08,01,13.00
2007,08,11,08,02,13.00
2007,08,11,08,03,13.10
2007,08,11,08,04,13.10
2007,08,11,08,05,13.10
2007,08,11,08,06,13.10
2007,08,11,08,07,13.10
2007,08,11,08,08,13.20
2007,08,11,08,09,13.30
2007,08,11,08,10,13.30
2007,08,11,08,11,13.40
2007,08,11,08,12,13.50
2007,08,11,08,13,13.70
2007,08,11,08,14,13.80
2007,08,11,08,15,13.90
2007,08,11,08,16,14.00
2007,08,11,08,17,14.20
2007,08,11,08,18,14.30
2007,08,11,08,19,14.40
2007,08,11,08,20,14.40
2007,08,11,08,21,14.50
2007,08,11,08,22,14.60
2007,08,11,08,23,14.70
2007,08,11,08,24,14.80
2007,08,11,08,25,14.80
2007,08,11,08,26,14.80
2007,08,11,08,27,14.80
2007,08,11,08,28,14.80
2007,08,11,08,29,14.90
2007,08,11,08,30,14.80
2007,08,11,08,31,14.70
2007,08,11,08,32,14.70
2007,08,11,08,33,14.70
2007,08,11,08,34,14.60
2007,08,11,08,35,14.60
2007,08,11,08,36,14.50
2007,08,11,08,37,14.50
2007,08,11,08,38,14.50
2007,08,11,08,39,14.50
2007,08,11,08,40,14.60
2007,08,11,08,41,14.60
2007,08,11,08,42,14.70
2007,08,11,08,43,14.80
2007,08,11,08,44,14.80
2007,08,11,08,45,14.80
2007,08,11,08,46,14.80
2007,08,11,08,47,14.80
2007,08,11,08,48,14.70
2007,08,11,08,49,14.70
2007,08,11,08,50,14.70
2007,08,11,08,51,14.70
2007,08,11,08,52,14.70
2007,08,11,08,53,14.70
2007,08,11,08,54,14.70
2007,08,11,08,55,14.80
2007,08,11,08,56,14.80
2007,08,11,08,57,14.80
2007,08,11,08,58,14.80
2007,08,11,08,59,14.90
2007,08,11,09,00,15.00
2007,08,11,09,01,15.00
2007,08,11,09,02,15.00
2007,08,11,09,03,15.00
2007,08,11,09,04,15.10
2007,08,11,09,05,15.20
2007,08,11,09,06,15.40
2007,08,11,09,07,15.40
2007,08,11,09,08,15.50
2007,08,11,09,09,15.60
2007,08,11,09,10,15.60
2007,08,11,09,11,15.60
2007,08,11,09,12,15.50
2007,08,11,09,13,15.30
2007,08,11,09,14,15.10
2007,08,11,09,15,15.00
2007,08,11,09,16,15.00
2007,08,11,09,17,15.00
2007,08,11,09,18,15.00
2007,08,11,09,19,15.00
2007,08,11,09,20,14.90
2007,08,11,09,21,15.00
2007,08,11,09,22,15.00
2007,08,11,09,23,15.00
2007,08,11,09,24,15.00
2007,08,11,09,25,15.00
2007,08,11,09,26,15.00
2007,08,11,09,27,14.80
2007,08,11,09,28,14.60
2007,08,11,09,29,14.50
2007,08,11,09,30,14.40
2007,08,11,09,31,14.40
2007,08,11,09,32,14.30
2007,08,11,09,33,14.30
2007,08,11,09,34,14.40
2007,08,11,09,35,14.50
2007,08,11,09,36,14.60
2007,08,11,09,37,14.70
2007,08,11,09,38,14.80
2007,08,11,09,39,14.80
2007,08,11,09,40,14.90
2007,08,11,09,41,15.00
2007,08,11,09,42,15.00
2007,08,11,09,43,15.00
2007,08,11,09,44,15.00
2007,08,11,09,45,15.10
2007,08,11,09,46,15.20
2007,08,11,09,47,15.20
2007,08,11,09,48,15.20
2007,08,11,09,49,15.20
2007,08,11,09,50,15.20
2007,08,11,09,51,15.20
2007,08,11,09,52,15.20
2007,08,11,09,53,15.30
2007,08,11,09,54,15.20
2007,08,11,09,55,15.10
2007,08,11,09,56,15.00
2007,08,11,09,57,15.00
2007,08,11,09,58,15.00
2007,08,11,09,59,15.00
2007,08,11,10,00,15.00
2007,08,11,10,01,15.00
2007,08,11,10,02,15.00
2007,08,11,10,03,14.80
2007,08,11,10,04,14.60
2007,08,11,10,05,14.60
2007,08,11,10,06,14.50
2007,08,11,10,07,14.50
2007,08,11,10,08,14.50
2007,08,11,10,09,14.60
2007,08,11,10,10,14.70
2007,08,11,10,11,14.90
2007,08,11,10,12,15.00
2007,08,11,10,13,15.00
2007,08,11,10,14,15.10
2007,08,11,10,15,15.20
2007,08,11,10,16,15.20
2007,08,11,10,17,15.30
2007,08,11,10,18,15.30
2007,08,11,10,19,15.30
2007,08,11,10,20,15.30
2007,08,11,10,21,15.20
2007,08,11,10,22,15.10
2007,08,11,10,23,15.10
2007,08,11,10,24,15.00
2007,08,11,10,25,15.10
2007,08,11,10,26,15.20
2007,08,11,10,27,15.30
2007,08,11,10,28,15.40
2007,08,11,10,29,15.50
2007,08,11,10,30,15.50
2007,08,11,10,31,15.60
2007,08,11,10,32,15.70
2007,08,11,10,33,15.80
2007,08,11,10,34,15.90
2007,08,11,10,35,15.90
2007,08,11,10,36,15.90
2007,08,11,10,37,15.90
2007,08,11,10,38,16.00
2007,08,11,10,39,15.90
2007,08,11,10,40,15.90
2007,08,11,10,41,15.90
2007,08,11,10,42,15.90
2007,08,11,10,43,15.80
2007,08,11,10,44,15.80
2007,08,11,10,45,15.80
2007,08,11,10,46,15.80
2007,08,11,10,47,15.80
2007,08,11,10,48,15.90
2007,08,11,10,49,16.00
2007,08,11,10,50,16.00
2007,08,11,10,51,15.90
2007,08,11,10,52,15.80
2007,08,11,10,53,15.80
2007,08,11,10,54,15.70
2007,08,11,10,55,15.70
2007,08,11,10,56,15.60
2007,08,11,10,57,15.50
2007,08,11,10,58,15.50
2007,08,11,10,59,15.40
2007,08,11,11,00,15.40
2007,08,11,11,01,15.50
2007,08,11,11,02,15.50
2007,08,11,11,03,15.60
2007,08,11,11,04,15.60
2007,08,11,11,05,15.60
2007,08,11,11,06,15.70
2007,08,11,11,07,15.60
2007,08,11,11,08,15.60
2007,08,11,11,09,15.60
2007,08,11,11,10,15.50
2007,08,11,11,11,15.50
2007,08,11,11,12,15.40
2007,08,11,11,13,15.40
2007,08,11,11,14,15.40
2007,08,11,11,15,15.50
2007,08,11,11,16,15.40
2007,08,11,11,17,15.30
2007,08,11,11,18,15.20
2007,08,11,11,19,15.10
2007,08,11,11,20,15.10
2007,08,11,11,21,15.00
2007,08,11,11,22,15.00
2007,08,11,11,23,14.90
2007,08,11,11,24,14.80
2007,08,11,11,25,14.80
2007,08,11,11,26,14.90
2007,08,11,11,27,15.00
2007,08,11,11,28,15.00
2007,08,11,11,29,15.00
2007,08,11,11,30,15.00
2007,08,11,11,31,15.00
2007,08,11,11,32,15.00
2007,08,11,11,33,15.10
2007,08,11,11,34,15.20
2007,08,11,11,35,15.30
2007,08,11,11,36,15.40
2007,08,11,11,37,15.50
2007,08,11,11,38,15.50
2007,08,11,11,39,15.50
2007,08,11,11,40,15.50
2007,08,11,11,41,15.50
2007,08,11,11,42,15.50
2007,08,11,11,43,15.50
2007,08,11,11,44,15.50
2007,08,11,11,45,15.50
2007,08,11,11,46,15.60
2007,08,11,11,47,15.60
2007,08,11,11,48,15.60
2007,08,11,11,49,15.50
2007,08,11,11,50,15.40
2007,08,11,11,51,15.40
2007,08,11,11,52,15.30
2007,08,11,11,53,15.30
2007,08,11,11,54,15.30
2007,08,11,11,55,15.30
2007,08,11,11,56,15.30
2007,08,11,11,57,15.30
2007,08,11,11,58,15.40
2007,08,11,11,59,15.40
2007,08,11,12,00,15.50
2007,08,11,12,01,15.60
2007,08,11,12,02,15.60
2007,08,11,12,03,15.70
2007,08,11,12,04,15.80
2007,08,11,12,05,15.90
2007,08,11,12,06,15.90
2007,08,11,12,07,16.00
2007,08,11,12,08,16.10
2007,08,11,12,09,16.20
2007,08,11,12,10,16.20
2007,08,11,12,11,16.30
2007,08,11,12,12,16.40
2007,08,11,12,13,16.40
2007,08,11,12,14,16.40
2007,08,11,12,15,16.30
2007,08,11,12,16,16.30
2007,08,11,12,17,16.30
2007,08,11,12,18,16.30
2007,08,11,12,19,16.40
2007,08,11,12,20,16.30
2007,08,11,12,21,16.20
2007,08,11,12,22,16.20
2007,08,11,12,23,16.20
2007,08,11,12,24,16.20
2007,08,11,12,25,16.30
2007,08,11,12,26,16.30
2007,08,11,12,27,16.40
2007,08,11,12,28,16.40
2007,08,11,12,29,16.40
2007,08,11,12,30,16.50
2007,08,11,12,31,16.50
2007,08,11,12,32,16.60
2007,08,11,12,33,16.70
2007,08,11,12,34,16.70
2007,08,11,12,35,16.80
2007,08,11,12,36,16.80
2007,08,11,12,37,16.70
2007,08,11,12,38,16.70
2007,08,11,12,39,16.70
2007,08,11,12,40,16.70
2007,08,11,12,41,16.80
2007,08,11,12,42,16.80
2007,08,11,12,43,16.90
2007,08,11,12,44,16.90
2007,08,11,12,45,16.90
2007,08,11,12,46,16.80
2007,08,11,12,47,16.70
2007,08,11,12,48,16.60
2007,08,11,12,49,16.40
2007,08,11,12,50,16.30
2007,08,11,12,51,16.30
2007,08,11,12,52,16.30
2007,08,11,12,53,16.30
2007,08,11,12,54,16.40
2007,08,11,12,55,16.40
2007,08,11,12,56,16.40
2007,08,11,12,57,16.50
2007,08,11,12,58,16.60
2007,08,11,12,59,16.60
2007,08,11,13,00,16.60
2007,08,11,13,01,16.70
2007,08,11,13,02,16.70
2007,08,11,13,03,16.70
2007,08,11,13,04,16.70
2007,08,11,13,05,16.70
2007,08,11,13,06,16.70
2007,08,11,13,07,16.60
2007,08,11,13,08,16.60
2007,08,11,13,09,16.60
2007,08,11,13,10,16.60
2007,08,11,13,11,16.70
2007,08,11,13,12,16.70
2007,08,11,13,13,16.70
2007,08,11,13,14,16.70
2007,08,11,13,15,16.60
2007,08,11,13,16,16.60
2007,08,11,13,17,16.60
2007,08,11,13,18,16.70
2007,08,11,13,19,16.70
2007,08,11,13,20,16.80
2007,08,11,13,21,16.80
2007,08,11,13,22,16.80
2007,08,11,13,23,16.80
2007,08,11,13,24,16.90
2007,08,11,13,25,16.90
2007,08,11,13,26,17.00
2007,08,11,13,27,17.10
2007,08,11,13,28,17.10
2007,08,11,13,29,17.20
2007,08,11,13,30,17.20
2007,08,11,13,31,17.20
2007,08,11,13,32,17.20
2007,08,11,13,33,17.20
2007,08,11,13,34,17.20
2007,08,11,13,35,17.20
2007,08,11,13,36,17.20
2007,08,11,13,37,17.10
2007,08,11,13,38,17.00
2007,08,11,13,39,17.00
2007,08,11,13,40,17.00
2007,08,11,13,41,17.00
2007,08,11,13,42,16.90
2007,08,11,13,43,16.90
2007,08,11,13,44,16.90
2007,08,11,13,45,17.00
2007,08,11,13,46,17.10
2007,08,11,13,47,17.10
2007,08,11,13,48,17.20
2007,08,11,13,49,17.30
2007,08,11,13,50,17.30
2007,08,11,13,51,17.40
2007,08,11,13,52,17.50
2007,08,11,13,53,17.60
2007,08,11,13,54,17.70
2007,08,11,13,55,17.90
2007,08,11,13,56,17.90
2007,08,11,13,57,18.00
2007,08,11,13,58,18.00
2007,08,11,13,59,18.00
2007,08,11,14,00,17.90
2007,08,11,14,01,17.90
2007,08,11,14,02,17.80
2007,08,11,14,03,17.80
2007,08,11,14,04,17.80
2007,08,11,14,05,17.80
2007,08,11,14,06,17.90
2007,08,11,14,07,18.10
2007,08,11,14,08,18.20
2007,08,11,14,09,18.20
2007,08,11,14,10,18.30
2007,08,11,14,11,18.30
2007,08,11,14,12,18.30
2007,08,11,14,13,18.30
2007,08,11,14,14,18.40
2007,08,11,14,15,18.40
2007,08,11,14,16,18.40
2007,08,11,14,17,18.40
2007,08,11,14,18,18.30
2007,08,11,14,19,18.30
2007,08,11,14,20,18.30
2007,08,11,14,21,18.30
2007,08,11,14,22,18.40
2007,08,11,14,23,18.30
2007,08,11,14,24,18.20
2007,08,11,14,25,18.10
2007,08,11,14,26,17.90
2007,08,11,14,27,17.80
2007,08,11,14,28,17.70
2007,08,11,14,29,17.60
2007,08,11,14,30,17.40
2007,08,11,14,31,17.20
2007,08,11,14,32,17.10
2007,08,11,14,33,17.00
2007,08,11,14,34,16.90
2007,08,11,14,35,16.70
2007,08,11,14,36,16.50
2007,08,11,14,37,16.40
2007,08,11,14,38,16.20
2007,08,11,14,39,16.00
2007,08,11,14,40,16.00
2007,08,11,14,41,15.90
2007,08,11,14,42,15.90
2007,08,11,14,43,15.90
2007,08,11,14,44,15.80
2007,08,11,14,45,15.80
2007,08,11,14,46,15.80
2007,08,11,14,47,15.80
2007,08,11,14,48,15.70
2007,08,11,14,49,15.60
2007,08,11,14,50,15.60
2007,08,11,14,51,15.50
2007,08,11,14,52,15.40
2007,08,11,14,53,15.40
2007,08,11,14,54,15.50
2007,08,11,14,55,15.60
2007,08,11,14,56,15.60
2007,08,11,14,57,15.60
2007,08,11,14,58,15.70
2007,08,11,14,59,15.70
2007,08,11,15,00,15.80
2007,08,11,15,01,15.80
2007,08,11,15,02,15.90
2007,08,11,15,03,15.90
2007,08,11,15,04,15.90
2007,08,11,15,05,16.00
2007,08,11,15,06,16.00
2007,08,11,15,07,16.10
2007,08,11,15,08,16.10
2007,08,11,15,09,16.20
2007,08,11,15,10,16.30
2007,08,11,15,11,16.30
2007,08,11,15,12,16.40
2007,08,11,15,13,16.60
2007,08,11,15,14,16.70
2007,08,11,15,15,16.80
2007,08,11,15,16,16.90
2007,08,11,15,17,17.00
2007,08,11,15,18,17.10
2007,08,11,15,19,17.20
2007,08,11,15,20,17.30
2007,08,11,15,21,17.30
2007,08,11,15,22,17.40
2007,08,11,15,23,17.40
2007,08,11,15,24,17.50
2007,08,11,15,25,17.50
2007,08,11,15,26,17.50
2007,08,11,15,27,17.60
2007,08,11,15,28,17.60
2007,08,11,15,29,17.70
2007,08,11,15,30,17.70
2007,08,11,15,31,17.80
2007,08,11,15,32,17.80
2007,08,11,15,33,17.90
2007,08,11,15,34,18.00
2007,08,11,15,35,18.10
2007,08,11,15,36,18.20
2007,08,11,15,37,18.30
2007,08,11,15,38,18.40
2007,08,11,15,39,18.40
2007,08,11,15,40,18.50
2007,08,11,15,41,18.60
2007,08,11,15,42,18.70
2007,08,11,15,43,18.80
2007,08,11,15,44,18.80
2007,08,11,15,45,18.80
2007,08,11,15,46,18.70
2007,08,11,15,47,18.70
2007,08,11,15,48,18.60
2007,08,11,15,49,18.60
2007,08,11,15,50,18.60
2007,08,11,15,51,18.60
2007,08,11,15,52,18.50
2007,08,11,15,53,18.50
2007,08,11,15,54,18.50
2007,08,11,15,55,18.50
2007,08,11,15,56,18.60
2007,08,11,15,57,18.60
2007,08,11,15,58,18.60
2007,08,11,15,59,18.60
2007,08,11,16,00,18.60
2007,08,11,16,01,18.60
2007,08,11,16,02,18.60
2007,08,11,16,03,18.60
2007,08,11,16,04,18.60
2007,08,11,16,05,18.60
2007,08,11,16,06,18.60
2007,08,11,16,07,18.70
2007,08,11,16,08,18.70
2007,08,11,16,09,18.70
2007,08,11,16,10,18.70
2007,08,11,16,11,18.70
2007,08,11,16,12,18.70
2007,08,11,16,13,18.70
2007,08,11,16,14,18.70
2007,08,11,16,15,18.80
2007,08,11,16,16,18.80
2007,08,11,16,17,18.80
2007,08,11,16,18,18.90
2007,08,11,16,19,18.90
2007,08,11,16,20,18.90
2007,08,11,16,21,18.90
2007,08,11,16,22,18.80
2007,08,11,16,23,18.80
2007,08,11,16,24,18.80
2007,08,11,16,25,18.80
2007,08,11,16,26,18.80
2007,08,11,16,27,18.80
2007,08,11,16,28,18.80
2007,08,11,16,29,18.70
2007,08,11,16,30,18.70
2007,08,11,16,31,18.70
2007,08,11,16,32,18.60
2007,08,11,16,33,18.60
2007,08,11,16,34,18.50
2007,08,11,16,35,18.40
2007,08,11,16,36,18.30
2007,08,11,16,37,18.20
2007,08,11,16,38,18.10
2007,08,11,16,39,18.10
2007,08,11,16,40,18.00
2007,08,11,16,41,17.90
2007,08,11,16,42,17.90
2007,08,11,16,43,17.90
2007,08,11,16,44,17.90
2007,08,11,16,45,17.90
2007,08,11,16,46,17.80
2007,08,11,16,47,17.80
2007,08,11,16,48,17.80
2007,08,11,16,49,17.70
2007,08,11,16,50,17.70
2007,08,11,16,51,17.70
2007,08,11,16,52,17.60
2007,08,11,16,53,17.50
2007,08,11,16,54,17.50
2007,08,11,16,55,17.40
2007,08,11,16,56,17.40
2007,08,11,16,57,17.40
2007,08,11,16,58,17.30
2007,08,11,16,59,17.20
2007,08,11,17,00,17.20
2007,08,11,17,01,17.20
2007,08,11,17,02,17.20
2007,08,11,17,03,17.20
2007,08,11,17,04,17.10
2007,08,11,17,05,17.10
2007,08,11,17,06,17.10
2007,08,11,17,07,17.10
2007,08,11,17,08,17.00
2007,08,11,17,09,16.90
2007,08,11,17,10,16.90
2007,08,11,17,11,16.90
2007,08,11,17,12,16.90
2007,08,11,17,13,16.80
2007,08,11,17,14,16.80
2007,08,11,17,15,16.80
2007,08,11,17,16,16.80
2007,08,11,17,17,16.70
2007,08,11,17,18,16.80
2007,08,11,17,19,16.80
2007,08,11,17,20,16.80
2007,08,11,17,21,16.80
2007,08,11,17,22,16.80